Overview Statistics Trail Chart Weather Telemetry Raw packets
 

This is the latest recevied weather packets stored in our database for station/object K5GHS-1. If no packets are shown the sender has not sent any weather packets the latest 10 day(s).

<< 86 87 88 89 90 91 92 >>
Time Temp. Humidity Pressure Rain* Wind** Luminosity Snow
1788069862 30° C 49% 1013.9 hPa 0 mm - 0 W/m² -
1788069558 30° C 50% 1013.7 hPa 0 mm - 0 W/m² -
1788069253 30° C 50% 1014 hPa 0 mm - 0 W/m² -
1788068949 30° C 50% 1013.8 hPa 0 mm - 0 W/m² -
1788068645 30° C 51% 1013.8 hPa 0 mm - 0 W/m² -
1788068340 30° C 52% 1013.8 hPa 0 mm - 0 W/m² -
1788068035 30° C 52% 1014 hPa 0 mm - 0 W/m² -
1788067734 30° C 53% 1014 hPa 0 mm - 0 W/m² -
1788067430 30° C 53% 1013.9 hPa 0 mm - 0 W/m² -
1788067134 30° C 53% 1014 hPa 0 mm - 0 W/m² -
1788066820 30° C 53% 1013.9 hPa 0 mm - 0 W/m² -
1788066519 30° C 53% 1013.7 hPa 0 mm - 0 W/m² -
1788066215 30.56° C 53% 1013.8 hPa 0 mm - 0 W/m² -
1788065913 30.56° C 52% 1013.8 hPa 0 mm - 0 W/m² -
1788065608 31.67° C 49% 1013.8 hPa 0 mm - 0 W/m² -
1788065307 31.67° C 45% 1013.8 hPa 0 mm - 0 W/m² -
1788065003 31.11° C 46% 1013.8 hPa 0 mm - 0 W/m² -
1788064697 31.67° C 46% 1013.8 hPa 0 mm - 0 W/m² -
1788064392 31.67° C 45% 1013.6 hPa 0 mm - 0 W/m² -
1788064090 31.11° C 46% 1013.6 hPa 0 mm - 0 W/m² -
1788063784 31.11° C 47% 1013.5 hPa 0 mm - 0 W/m² -
1788063483 31.11° C 47% 1013.4 hPa 0 mm - 0 W/m² -
1788063177 30.56° C 48% 1013.4 hPa 0 mm - 0 W/m² -
1788062873 31.11° C 48% 1013.6 hPa 0 mm - 0 W/m² -
1788062569 30.56° C 48% 1013.5 hPa 0 mm - 0 W/m² -

* Rain latest hour (hover to see other rain measurements)
** Current wind speed in m/s (hover to see current wind gust speed)